Weather History for State College, PA

Change the Weather History Date:

Friday, May 17, 2013

  Actual Average Record
Temperature  
Mean Temperature 62 °F -  
Max Temperature 73 °F 69 °F 92 °F (1962)
Min Temperature 50 °F 48 °F 29 °F (1984)
Degree Days  
Heating Degree Days 4    
Growing Degree Days 12 (Base 50)    
Moisture  
Dew Point 39 °F    
Average Humidity 46    
Maximum Humidity 71    
Minimum Humidity 31    
Precipitation  
Precipitation 0.00 in - - ()
Sea Level Pressure  
Sea Level Pressure 30.08 in    
Wind  
Wind Speed 4 mph (NE)    
Max Wind Speed 12 mph    
Max Gust Speed 16 mph    
Visibility 10 miles    
Events      
Averages and records for this station are not official NWS values.
T = Trace of Precipitation, MM = Missing Value Source: NWS Daily Summary

Daily Weather History Graph

Daily Weather History Graph

Search for Another Location

Airport:

Trip Planner

Search our weather history database for the weather conditions in past years. The results will help you decide how hot, cold, wet, or windy it might be!

Date:

Astronomy

May. 17, 2013 Rise Set
Actual Time 5:51 AM EDT 8:24 PM EDT
Civil Twilight 5:20 AM EDT 8:55 PM EDT
Nautical Twilight 4:41 AM EDT 9:34 PM EDT
Astronomical Twilight 3:57 AM EDT 10:18 PM EDT
Moon 12:23 PM EDT (5/17) 1:14 AM EDT (5/17)
Length of Visible Light 15h 35m
Length of Day
14h 32m
Waxing Crescent, 45% of the Moon is Illuminated
May 17
Waxing Crescent
May 18
First Quarter
May 25
Full
May 31
Last Quarter
Jun 8
New

Hourly Weather History & Observations

Time (EDT) Temp. Dew Point Humidity Pressure Visibility Wind Dir Wind Speed Gust Speed Precip Events Conditions
12:15 AM 65.1 °F 34.0 °F 31% 29.98 in 10.0 mi NNW 5.8 mph - N/A   Clear
12:35 AM 63.9 °F 34.0 °F 33% 29.98 in 10.0 mi NNW 3.5 mph - N/A   Clear
12:55 AM 63.5 °F 33.3 °F 32% 29.98 in 10.0 mi Calm Calm - N/A   Clear
1:15 AM 62.1 °F 33.4 °F 34% 29.98 in 10.0 mi Calm Calm - N/A   Clear
1:35 AM 59.9 °F 34.7 °F 39% 29.98 in 10.0 mi Calm Calm - N/A   Clear
1:55 AM 60.1 °F 34.5 °F 38% 29.98 in 10.0 mi Calm Calm - N/A   Clear
2:15 AM 56.1 °F 36.5 °F 48% 29.99 in 10.0 mi West 3.5 mph - N/A   Clear
2:35 AM 56.8 °F 36.3 °F 46% 30.00 in 10.0 mi SW 8.1 mph - N/A   Clear
2:55 AM 56.7 °F 37.6 °F 49% 30.00 in 10.0 mi West 6.9 mph - N/A   Clear
3:15 AM 54.9 °F 38.5 °F 54% 30.01 in 10.0 mi West 6.9 mph - N/A   Clear
3:35 AM 56.1 °F 37.0 °F 49% 30.01 in 10.0 mi WSW 4.6 mph - N/A   Clear
3:55 AM 58.5 °F 35.8 °F 43% 30.02 in 10.0 mi Calm Calm - N/A   Clear
4:15 AM 55.8 °F 36.1 °F 48% 30.02 in 10.0 mi Calm Calm - N/A   Clear
4:35 AM 53.1 °F 37.0 °F 55% 30.02 in 10.0 mi SW 3.5 mph - N/A   Clear
4:55 AM 55.8 °F 35.1 °F 46% 30.03 in 10.0 mi Calm Calm - N/A   Clear
5:15 AM 50.9 °F 38.3 °F 62% 30.03 in 10.0 mi Calm Calm - N/A   Clear
5:35 AM 51.3 °F 37.9 °F 60% 30.04 in 10.0 mi Calm Calm - N/A   Clear
5:53 AM 50.0 °F 37.4 °F 62% 30.06 in 10.0 mi Calm Calm - N/A   Clear
6:53 AM 50.0 °F 41.0 °F 71% 30.10 in 10.0 mi Calm Calm - N/A   Clear
7:53 AM 53.6 °F 41.0 °F 62% 30.13 in 10.0 mi East 6.9 mph - N/A   Clear
8:53 AM 57.2 °F 41.0 °F 55% 30.15 in 10.0 mi NE 8.1 mph - N/A   Clear
9:53 AM 59.0 °F 41.0 °F 51% 30.15 in 10.0 mi East 6.9 mph - N/A   Clear
10:53 AM 60.8 °F 44.6 °F 55% 30.15 in 10.0 mi ESE 8.1 mph - N/A   Clear
11:53 AM 64.4 °F 42.8 °F 45% 30.16 in 10.0 mi NE 6.9 mph - N/A   Clear
12:53 PM 68.0 °F 44.6 °F 43% 30.14 in 10.0 mi NNE 6.9 mph - N/A   Clear
1:53 PM 66.2 °F 44.6 °F 46% 30.13 in 10.0 mi ESE 8.1 mph - N/A   Clear
2:53 PM 71.6 °F 44.6 °F 38% 30.12 in 10.0 mi ESE 6.9 mph - N/A   Partly Cloudy
3:53 PM 73.4 °F 44.6 °F 36% 30.10 in 10.0 mi East 5.8 mph - N/A   Scattered Clouds
4:53 PM 73.4 °F 42.8 °F 33% 30.09 in 10.0 mi East 6.9 mph - N/A   Scattered Clouds
5:53 PM 73.4 °F 41.0 °F 31% 30.09 in 10.0 mi NE 9.2 mph - N/A   Scattered Clouds
6:53 PM 71.6 °F 41.0 °F 33% 30.09 in 10.0 mi ENE 8.1 mph - N/A   Scattered Clouds
7:53 PM 68.0 °F 42.8 °F 40% 30.12 in 10.0 mi East 9.2 mph - N/A   Scattered Clouds
8:53 PM 64.4 °F 41.0 °F 42% 30.14 in 10.0 mi ENE 5.8 mph - N/A   Scattered Clouds
9:15 PM 64.4 °F 41.9 °F 44% 30.15 in 10.0 mi NNE 5.8 mph - N/A   Clear
9:35 PM 64.0 °F 41.5 °F 44% 30.16 in 10.0 mi NE 5.8 mph - N/A   Clear
9:55 PM 63.0 °F 41.0 °F 45% 30.17 in 10.0 mi ENE 5.8 mph - N/A   Clear
10:15 PM 62.6 °F 40.8 °F 45% 30.17 in 10.0 mi ENE 4.6 mph - N/A   Clear
10:35 PM 62.1 °F 41.2 °F 46% 30.17 in 10.0 mi NNE 5.8 mph - N/A   Clear
10:55 PM 61.7 °F 41.2 °F 47% 30.18 in 10.0 mi NE 6.9 mph - N/A   Clear
11:15 PM 60.3 °F 41.9 °F 51% 30.18 in 10.0 mi NNE 6.9 mph - N/A   Clear
11:35 PM 60.4 °F 41.0 °F 49% 30.18 in 10.0 mi NNE 11.5 mph - N/A   Clear
11:55 PM 59.9 °F 40.5 °F 49% 30.19 in 10.0 mi NNE 10.4 mph 16.1 mph N/A   Clear